Location: Bonningues
(50.7927°N, 2.0150°E)
Time: 15:56:54
(UTC+00:00)

Cosmos 1066 Rocket - Pass Details

Date: 08 August 2020
Orbit: 798 x 895 km, 81.2° (Epoch: 24 September)

Event Time Altitude Azimuth Distance (km) Brightness Sun altitude
Rises 22:43:49 0° 348° (NNW) 3,493 8.9 -21.5°
Reaches altitude 10° 22:46:19 10° 350° (N) 2,538 7.8 -21.6°
Maximum altitude 22:52:05 75° 76° (ENE) 894 4.2 -21.9°
Enters shadow 22:53:46 47° 149° (SSE) 1,125 4.4 -22.0°
